Satellite: SO-50
Catalog number: 27607
Epoch time:      12116.93822111
Element set:    0747
Inclination:      064.5570 deg
RA of node:       093.8328 deg
Eccentricity:    0.0084538
Arg of perigee:   258.8865 deg
Mean anomaly:     100.2722 deg
Mean motion:   14.72327870 rev/day
Decay rate:      1.245e-05 rev/day^2
Epoch rev:           50227
Checksum:              305

Satellite: CO-55
Catalog number: 27844
Epoch time:      12116.60568102
Element set:     359
Inclination:      098.7022 deg
RA of node:       125.7509 deg
Eccentricity:    0.0010167
Arg of perigee:   019.5653 deg
Mean anomaly:     340.5923 deg
Mean motion:   14.20999258 rev/day
Decay rate:        4.5e-07 rev/day^2
Epoch rev:           45742
Checksum:              309

Satellite: CO-57
Catalog number: 27848
Epoch time:      12117.58612896
Element set:     311
Inclination:      098.7098 deg
RA of node:       126.0261 deg
Eccentricity:    0.0010115
Arg of perigee:   022.9774 deg
Mean anomaly:     337.1799 deg
Mean motion:   14.20752758 rev/day
Decay rate:      -4.26e-06 rev/day^2
Epoch rev:           45750
Checksum:              325

Satellite: AO-51
Catalog number: 28375
Epoch time:      12117.48647370
Element set:     250
Inclination:      098.1424 deg
RA of node:       085.1826 deg
Eccentricity:    0.0082720
Arg of perigee:   197.2092 deg
Mean anomaly:     162.6290 deg
Mean motion:   14.40929921 rev/day
Decay rate:       1.51e-06 rev/day^2
Epoch rev:           41132
Checksum:              291

Satellite: CP3
Catalog number: 31129
Epoch time:      12117.50478980
Element set:     150
Inclination:      097.8809 deg
RA of node:       128.3228 deg
Eccentricity:    0.0099936
Arg of perigee:   284.2082 deg
Mean anomaly:     074.7992 deg
Mean motion:   14.53010617 rev/day
Decay rate:      1.083e-05 rev/day^2
Epoch rev:           26647
Checksum:              318

Satellite: CO-65
Catalog number: 32785
Epoch time:      12116.68113357
Element set:    0291
Inclination:      097.8032 deg
RA of node:       178.9670 deg
Eccentricity:    0.0013781
Arg of perigee:   230.8448 deg
Mean anomaly:     129.1578 deg
Mean motion:   14.82860282 rev/day
Decay rate:      2.395e-05 rev/day^2
Epoch rev:           21598
Checksum:              336

Satellite: PRISM
Catalog number: 33493
Epoch time:      12117.53661323
Element set:     641
Inclination:      098.1651 deg
RA of node:       256.9035 deg
Eccentricity:    0.0020231
Arg of perigee:   104.5785 deg
Mean anomaly:     255.7662 deg
Mean motion:   14.83632462 rev/day
Decay rate:      5.244e-05 rev/day^2
Epoch rev:           17609
Checksum:              290

Satellite: SOHLA-1
Catalog number: 33496
Epoch time:      12116.96286712
Element set:    0712
Inclination:      098.0988 deg
RA of node:       229.0605 deg
Eccentricity:    0.0006264
Arg of perigee:   198.6622 deg
Mean anomaly:     161.4353 deg
Mean motion:   14.69931153 rev/day
Decay rate:       7.92e-06 rev/day^2
Epoch rev:           17457
Checksum:              323

Satellite: SO-67
Catalog number: 35870
Epoch time:      12117.63518998
Element set:     900
Inclination:      097.2371 deg
RA of node:       155.1978 deg
Eccentricity:    0.0002502
Arg of perigee:   041.5619 deg
Mean anomaly:     104.6273 deg
Mean motion:   15.23396140 rev/day
Decay rate:      6.823e-05 rev/day^2
Epoch rev:           14476
Checksum:              313

Satellite: TISAT-1
Catalog number: 36799
Epoch time:      12117.48296665
Element set:     917
Inclination:      098.0627 deg
RA of node:       193.4413 deg
Eccentricity:    0.0014262
Arg of perigee:   345.5234 deg
Mean anomaly:     014.5561 deg
Mean motion:   14.81778660 rev/day
Decay rate:      2.889e-05 rev/day^2
Epoch rev:            9683
Checksum:              340

Satellite: STUDSAT
Catalog number: 36801
Epoch time:      12116.88604707
Element set:    0384
Inclination:      098.0701 deg
RA of node:       193.3343 deg
Eccentricity:    0.0012088
Arg of perigee:   333.0420 deg
Mean anomaly:     027.0167 deg
Mean motion:   14.83806143 rev/day
Decay rate:      7.940e-05 rev/day^2
Epoch rev:           09676
Checksum:              286

Satellite: FO-69
Catalog number: 37227
Epoch time:      12116.07696006
Element set:    0165
Inclination:      071.9704 deg
RA of node:       069.1498 deg
Eccentricity:    0.0015334
Arg of perigee:   055.8878 deg
Mean anomaly:     304.3681 deg
Mean motion:   14.77015651 rev/day
Decay rate:       6.70e-06 rev/day^2
Epoch rev:           02825
Checksum:              317

Satellite: FO-70
Catalog number: 37380
Epoch time:      12116.07361532
Element set:    0168
Inclination:      071.9737 deg
RA of node:       069.6461 deg
Eccentricity:    0.0016000
Arg of perigee:   053.0808 deg
Mean anomaly:     307.1778 deg
Mean motion:   14.76769587 rev/day
Decay rate:       6.92e-06 rev/day^2
Epoch rev:           02814
Checksum:              313

Satellite: ALMASAT-1
Catalog number: 38078
Epoch time:      12116.92190876
Element set:    0155
Inclination:      069.4901 deg
RA of node:       075.5191 deg
Eccentricity:    0.0766176
Arg of perigee:   313.9962 deg
Mean anomaly:     040.0303 deg
Mean motion:   14.07650383 rev/day
Decay rate:     3.8758e-04 rev/day^2
Epoch rev:           01019
Checksum:              311

